Location: Arborea
(39.7744°N, 8.5819°E)
Time: 05:33:19
(UTC+00:00)

Cosmos 2322 - Pass Details

Date: 05 June 2022
Orbit: 840 x 855 km, 71.0° (Epoch: 03 July)

Event Time Altitude Azimuth Distance (km) Brightness Sun altitude
Rises 21:47:55 0° 231° (SW) 3,411 6.7 -23.7°
Reaches altitude 10° 21:50:39 10° 242° (WSW) 2,480 6.1 -23.9°
Maximum altitude 21:55:38 30° 303° (WNW) 1,479 5.4 -24.3°
Drops below altitude 10° 22:00:38 10° 4° (N) 2,493 7.0 -24.6°
Sets 22:03:25 0° 15° (NNE) 3,433 7.7 -24.8°
